Location: Peterborough
(44.3091°N, 78.3197°W)
Time: 00:22:45
(UTC-05:00)

Tiros 1 despin weight - Pass Details

Date: 07 December 2023
Orbit: 581 x 624 km, 48.2° (Epoch: 28 February)

Event Time Altitude Azimuth Distance (km) Brightness Sun altitude
Rises 17:40:03 0° 239° (WSW) 2,807 ? -11.4°
Reaches altitude 10° 17:42:20 10° 238° (WSW) 1,903 ? -11.8°
Maximum altitude 17:46:40 73° 154° (SSE) 610 ? -12.5°
Enters shadow 17:49:34 20° 72° (ENE) 1,352 ? -13.0°
